Regional Weather Roundup
Issued by NWS

Home | Current Version | Previous Version | Graphics & Text | Print | Product List | Glossary On
Versions: 1 2 3 4 5 6 7 8 9 10 11 12 13 14 15 16 17 18 19 20 21 22 23 24 25 26 27 28 29 30 31 32 33 34 35 36 37 38 39 40 41 42 43 44 45 46 47 48 49 50
000
ASUS43 KTOP 301708
RWRKS

WEATHER ROUNDUP FOR KANSAS
NATIONAL WEATHER SERVICE GOODLAND KS
1200 PM CDT THU OCT 30 2014

NOTE:  "FAIR" INDICATES FEW OR NO CLOUDS BELOW 12,000 FEET WITH NO
SIGNIFICANT WEATHER AND/OR OBSTRUCTIONS TO VISIBILITY.

KSZ001>006-013>018-027>032-041>047-301800-
NORTHWEST KANSAS

CITY           SKY/WX    TMP DP  RH WIND       PRES   REMARKS
GOODLAND       SUNNY     59  31  34 N14       30.34R
HAYS           SUNNY     64  36  34 NW16      30.23R
HILL CITY      LGT RAIN  63  33  32 N18G26    30.26R
RUSSELL        SUNNY     64  37  36 N17       30.20R
$$

KSZ061>065-074>080-084>089-301800-
SOUTHWEST KANSAS

CITY           SKY/WX    TMP DP  RH WIND       PRES   REMARKS
DODGE CITY     SUNNY     65  32  29 N13       30.26R
GARDEN CITY    SUNNY     64  33  31 N18       30.28R
GREAT BEND     SUNNY     64  37  36 N17       30.21S
LIBERAL        SUNNY     64  36  34 N16       30.30R
PRATT          SUNNY     64  32  29 N15G22    30.22R
$$

KSZ066>073-081>083-090>101-301800-
SOUTHEAST KANSAS

CITY           SKY/WX    TMP DP  RH WIND       PRES   REMARKS
CHANUTE        SUNNY     66  41  40 N16G24    30.06S
COFFEYVILLE    SUNNY     66  43  43 W10       30.08S
HUTCHINSON     SUNNY     68  36  30 N13       30.17S
MEDICINE LODGE   N/A     69  34  27 N18G25    30.18R
NEWTON         SUNNY     63  37  39 N15G25    30.17S
PARSONS        LGT RAIN  67  43  41 NW13      30.08S
WICHITA INTL   SUNNY     68  36  30 N20G28    30.15R
WICHITA JABRA  SUNNY     67  35  30 N24       30.14R
WICHITA MCCONL SUNNY     67  34  29 N15G25    30.15R
WINFIELD       SUNNY     69  40  34 N18G25    30.14R
$$

KSZ007>012-019>026-033>040-048>060-102>105-301800-
NORTHEAST KANSAS

CITY           SKY/WX    TMP DP  RH WIND       PRES   REMARKS
CONCORDIA      SUNNY     66  38  35 NW16G25   30.15R
EMPORIA        SUNNY     67  38  34 N21G30    30.09R
LAWRENCE       SUNNY     65  42  43 NW16G24   30.04R HAZE
MANHATTAN      SUNNY     67  40  37 N10G16    30.11R
MARYSVILLE     SUNNY     63  41  45 N20G30    30.10S
OLATHE IND     SUNNY     63  43  48 NW13      30.04R
OLATHE EXE     SUNNY     63  42  46 NW9       30.02S
SALINA         SUNNY     67  39  35 NW15      30.16S
TOPEKA BILLARD SUNNY     68  41  37 N22G30    30.06R
TOPEKA FORBES  SUNNY     67  41  38 N22G30    30.05S
$$



USA.gov is the U.S. government's official web portal to all federal, state and local government web resources and services.